Tracking 35331 objects as of 15-Sep-2026
HD Live streaming from Space Station
objects crossing your sky now

STARLINK-32013

Track STARLINK-32013 now!
10-day predictions
STARLINK-32013 is classified as:


NORAD ID: 60103
Int'l Code: 2024-117N
Launch date: June 23, 2024
Source: United States (US)
Launch site: AIR FORCE EASTERN TEST RANGE (AFETR)
Your satellite tracking list
Your tracking list is empty




NASA's NSSDC Master Catalog

Two Line Element Set (TLE):
1 60103U 24117N   26257.95959024 -.00000397  00000-0 -60818-6 0  9990
2 60103  53.1586 235.9234 0001268  80.8045 279.3101 15.34387732125891
Source of the keplerian elements: AFSPC